[[{"header":{"parameterUnit":"m.s-1","parameterCategory":1,"la1":30.2991,"la2":30.254,"lo1":-89.0895,"lo2":-89.0444,"dy":0.0017,"dx":0.0017,"nx":28,"ny":28,"refTime":"2024-05-17T21:00:00:Z","depth":0,"parameterNumber":2,"parameterNumberName":"U-component_of_WINDS"},"data":[0,0,0,0,0,0,0,0,0,0,0,0,0,0,0,0,0,0,0,0,0,0,0,0,0,0,0,0,0,0,0,0,0,0,0,0,0,0,0,0,0,0,0,0,0,0,0,0,0,0,0,0,0,0,0,0,0,0,0.3141,0.3143,0,0.3307,0.3309,0.3311,0.3406,0.3406,0.3406,0.3407,0.3582,0.3586,0.359,0,0,0,0,0,0,0,0,0,0,0,0,0,0.2909,0.2913,0.3141,0.3143,0.3145,0.3307,0.3309,0.3311,0.3406,0.3406,0.3407,0.3407,0.358,0.3586,0.3591,0,0,0,0,0,0,0,0,0,0,0,0,0,0.3036,0.2914,0.314,0.3211,0.3219,0.3306,0.3309,0.3312,0.3406,0.3406,0.3407,0.3407,0.3579,0.3585,0.3592,0.3622,0,0,0.3612,0.3614,0,0,0,0,0,0,0,0,0.3029,0.3045,0.3199,0.3207,0.3216,0.3336,0.3292,0.3416,0.3406,0.3335,0.3407,0.3407,0.35,0.3513,0.3543,0.3631,0.3638,0.3612,0.3616,0.3619,0.3621,0,0,0,0,0,0,0,0.302,0.3038,0.3207,0.3201,0.3211,0.3236,0.3255,0.3316,0.3413,0.3341,0.3349,0.3367,0.3505,0.3537,0.3548,0.3641,0.3612,0.3618,0.3622,0.3624,0.3762,0.3761,0,0,0,0,0,0,0.2999,0.303,0.3202,0.3212,0.3121,0.324,0.3261,0.3297,0.3413,0.3431,0.3366,0.337,0.3525,0.354,0.3555,0.3599,0.3619,0.3625,0.3629,0.3762,0.3761,0.3761,0,0,0,0,0,0,0.2994,0.3014,0.3195,0.3123,0.3148,0.3244,0.3283,0.33,0.3332,0.3431,0.3449,0.3381,0.3526,0.3546,0.3604,0.3606,0.3628,0.3634,0.3762,0.3762,0.3761,0.3686,0,0,0,0,0,0,0.2987,0.3011,0.3023,0.3122,0.3151,0.324,0.3284,0.3303,0.3343,0.335,0.345,0.3467,0.3528,0.3594,0.3611,0.3615,0.3639,0.3762,0.3762,0.3761,0.3689,0.3683,0.3678,0,0,0,0,0,0.2978,0.2996,0.3023,0.3043,0.3168,0.324,0.3257,0.3326,0.3342,0.3356,0.3419,0.3464,0.3603,0.3599,0.3619,0.3625,0.3763,0.3762,0.3761,0.3691,0.3684,0.3678,0,0,0,0,0,0,0.2896,0.301,0.3042,0.3092,0.3155,0.3256,0.3275,0.3316,0.3378,0.3382,0.3466,0.3488,0.3539,0.3588,0.3583,0.3661,0.3688,0.3691,0.3627,0.3621,0.3616,0.3604,0.3644,0,0,0,0,0,0.2883,0.2931,0.3029,0.3064,0.3094,0.3178,0.3213,0.326,0.333,0.3358,0.3426,0.3493,0.3552,0.359,0.3649,0.3696,0.3719,0.371,0.3704,0.37,0.3702,0.373,0.3727,0.3759,0.3759,0.3759,0,0,0.2859,0.2927,0.2953,0.3049,0.3104,0.3153,0.3201,0.3251,0.3288,0.3366,0.3426,0.3477,0.3558,0.3611,0.3638,0.3654,0.3698,0.3699,0.3694,0.3699,0.3729,0.3726,0.3724,0.3759,0.3759,0.3759,0,0,0.2839,0.2895,0.293,0.2983,0.3065,0.3121,0.3129,0.3223,0.326,0.332,0.338,0.3426,0.3526,0.3581,0.3622,0.3621,0.3665,0.3638,0.3611,0.3638,0.3635,0.3633,0.3634,0.3632,0.364,0.364,0.364,0,0.2798,0.2873,0.2943,0.2989,0.303,0.3101,0.3138,0.3187,0.3284,0.3312,0.3327,0.3453,0.3513,0.358,0.3579,0.361,0.3623,0.3628,0.3629,0.3628,0.3628,0.3629,0.3629,0.3636,0.3636,0.3637,0.3637,0,0.2819,0.287,0.2889,0.2979,0.3022,0.3063,0.3141,0.3177,0.322,0.3274,0.3335,0.3408,0.3484,0.3503,0.3547,0.3576,0.3583,0.3613,0.3641,0.362,0.3622,0.3623,0.3631,0.3632,0.3633,0.3634,0,0,0.2754,0.2881,0.2886,0.2928,0.3022,0.3064,0.3108,0.318,0.3209,0.3274,0.3314,0.3396,0.3424,0.347,0.3521,0.3544,0.3539,0.3571,0.3575,0.3563,0.3576,0.3554,0.3553,0.3568,0.3568,0.3568,0.357,0,0.2748,0.2829,0.2894,0.2952,0.3,0.3067,0.3106,0.3168,0.322,0.3269,0.3328,0.3384,0.3416,0.3445,0.3471,0.3534,0.3543,0.3534,0.3607,0.3609,0.3585,0.3554,0.3531,0.3529,0.3571,0.3571,0.3571,0,0.2752,0.2812,0.2874,0.2963,0.2985,0.3019,0.309,0.3136,0.3208,0.3245,0.3295,0.3347,0.3398,0.342,0.3493,0.3485,0.3519,0.3554,0.3556,0.3566,0.3589,0.3564,0.353,0.3529,0.3574,0.3573,0.3573,0,0.2699,0.2795,0.2844,0.2878,0.2982,0.3004,0.3049,0.3122,0.3161,0.3224,0.325,0.3318,0.3356,0.3408,0.3477,0.3487,0.3542,0.357,0.3575,0.3573,0.3585,0.3583,0.3555,0.3605,0.3605,0.3605,0.3605,0,0.2686,0.2721,0.2821,0.2852,0.2894,0.2968,0.3008,0.3059,0.3123,0.3165,0.3228,0.3267,0.3355,0.3405,0.346,0.3512,0.3528,0.356,0.3574,0.3555,0.355,0.3579,0.3581,0.3605,0.3605,0.3605,0.3605,0,0.2634,0.2702,0.276,0.2854,0.2878,0.2905,0.2986,0.3019,0.3073,0.3126,0.3143,0.3229,0.3291,0.3364,0.3451,0.3487,0.3535,0.3555,0.3509,0.3518,0.3518,0.3517,0.3508,0.3511,0.3557,0.3556,0.3556,0,0.2622,0.265,0.2746,0.2778,0.282,0.2871,0.2911,0.2984,0.3023,0.3107,0.313,0.3196,0.3253,0.3349,0.3421,0.3487,0.351,0.3503,0.3521,0.35,0.3511,0.3509,0.3512,0.3498,0.3497,0.3496,0.3496,0,0.2593,0.2625,0.2678,0.2743,0.2788,0.2843,0.2902,0.2925,0.301,0.3051,0.3114,0.3158,0.3245,0.331,0.3385,0.3434,0.3479,0.3489,0.3494,0.3475,0.3447,0.3463,0.3497,0.3489,0.349,0.349,0.3491,0.3491,0.2561,0.2589,0.266,0.2718,0.2769,0.2821,0.2856,0.2914,0.2967,0.3043,0.3083,0.3145,0.3218,0.3323,0.3369,0.342,0.3436,0.3443,0.3445,0.3445,0.3439,0.3438,0.3434,0.3434,0.3434,0.3435,0.3435,0,0.2536,0.2584,0.2636,0.2715,0.276,0.2796,0.2862,0.2898,0.2951,0.3014,0.3068,0.314,0.3204,0.3279,0.3347,0.3373,0.3396,0.3389,0.3389,0.3399,0.3421,0.341,0.337,0.337,0.337,0.337,0.337,0.337,0.2528,0.2578,0.2618,0.2694,0.2743,0.2802,0.2837,0.2886,0.2936,0.3013,0.3065,0.3113,0.3181,0.3255,0.3315,0.3336,0.3359,0.3345,0.3372,0.3392,0.3397,0.3403,0.3393,0.3349,0.3349,0.3346,0.3346,0.3346]},{"header":{"parameterUnit":"m.s-1","parameterCategory":1,"la1":30.2991,"la2":30.254,"lo1":-89.0895,"lo2":-89.0444,"dy":0.0017,"dx":0.0017,"nx":28,"ny":28,"refTime":"2024-05-17T21:00:00:Z","depth":0,"parameterNumber":3,"parameterNumberName":"V-component_of_WINDS"},"data":[0,0,0,0,0,0,0,0,0,0,0,0,0,0,0,0,0,0,0,0,0,0,0,0,0,0,0,0,0,0,0,0,0,0,0,0,0,0,0,0,0,0,0,0,0,0,0,0,0,0,0,0,0,0,0,0,0,0,-0.0073,-0.0073,0,-0.0051,-0.005,-0.005,-0.0037,-0.0037,-0.0037,-0.0037,-0.0015,-0.0015,-0.0014,0,0,0,0,0,0,0,0,0,0,0,0,0,-0.0106,-0.0105,-0.0073,-0.0073,-0.0072,-0.0051,-0.005,-0.005,-0.0037,-0.0037,-0.0037,-0.0037,-0.0016,-0.0015,-0.0014,0,0,0,0,0,0,0,0,0,0,0,0,0,-0.0088,-0.0105,-0.0073,-0.0063,-0.0062,-0.0051,-0.005,-0.005,-0.0037,-0.0037,-0.0037,-0.0037,-0.0016,-0.0015,-0.0014,-0.0011,0,0,-0.0012,-0.0012,0,0,0,0,0,0,0,0,-0.0089,-0.0087,-0.0065,-0.0064,-0.0063,-0.0046,-0.0054,-0.0037,-0.0037,-0.0047,-0.0037,-0.0037,-0.0026,-0.0024,-0.002,-0.001,-0.0009,-0.0012,-0.0011,-0.0011,-0.0011,0,0,0,0,0,0,0,-0.009,-0.0088,-0.0064,-0.0065,-0.0063,-0.006,-0.0058,-0.0051,-0.0037,-0.0046,-0.0045,-0.0042,-0.0025,-0.0021,-0.002,-0.0009,-0.0012,-0.0011,-0.0011,-0.001,0.0004,0.0004,0,0,0,0,0,0,-0.0093,-0.0089,-0.0065,-0.0063,-0.0076,-0.006,-0.0057,-0.0052,-0.0037,-0.0035,-0.0042,-0.0042,-0.0022,-0.0021,-0.0019,-0.0015,-0.0011,-0.001,-0.001,0.0004,0.0004,0.0004,0,0,0,0,0,0,-0.0094,-0.0091,-0.0066,-0.0076,-0.0072,-0.0059,-0.0054,-0.0051,-0.0047,-0.0034,-0.0032,-0.004,-0.0022,-0.002,-0.0013,-0.0014,-0.001,-0.0009,0.0004,0.0004,0.0004,-0.0006,0,0,0,0,0,0,-0.0095,-0.0091,-0.0089,-0.0076,-0.0072,-0.006,-0.0054,-0.0051,-0.0046,-0.0045,-0.0032,-0.003,-0.0022,-0.0014,-0.0012,-0.0013,-0.0009,0.0004,0.0004,0.0004,-0.0005,-0.0006,-0.0007,0,0,0,0,0,-0.0096,-0.0093,-0.0089,-0.0087,-0.0069,-0.006,-0.0058,-0.0048,-0.0046,-0.0044,-0.0036,-0.003,-0.0014,-0.0014,-0.0012,-0.0011,0.0004,0.0004,0.0004,-0.0005,-0.0006,-0.0007,0,0,0,0,0,0,-0.0108,-0.0091,-0.0087,-0.008,-0.0071,-0.0058,-0.0055,-0.005,-0.0042,-0.0041,-0.003,-0.0028,-0.0022,-0.0016,-0.0016,-0.0008,-0.0004,-0.0004,-0.0012,-0.0013,-0.0014,-0.0015,-0.0008,0,0,0,0,0,-0.0109,-0.0102,-0.0089,-0.0084,-0.008,-0.0068,-0.0064,-0.0057,-0.0048,-0.0045,-0.0036,-0.0028,-0.0021,-0.0017,-0.001,-0.0005,-0.0002,-0.0004,-0.0004,-0.0005,-0.0005,-0.0002,-0.0003,0.0003,0.0003,0.0003,0,0,-0.0113,-0.0103,-0.0099,-0.0086,-0.0079,-0.0072,-0.0065,-0.0059,-0.0054,-0.0044,-0.0037,-0.0031,-0.0021,-0.0015,-0.0012,-0.001,-0.0006,-0.0005,-0.0006,-0.0005,-0.0003,-0.0003,-0.0004,0.0003,0.0003,0.0003,0,0,-0.0116,-0.0108,-0.0103,-0.0096,-0.0085,-0.0077,-0.0076,-0.0063,-0.0059,-0.0051,-0.0044,-0.0038,-0.0026,-0.002,-0.0015,-0.0016,-0.0011,-0.0015,-0.0019,-0.0016,-0.0017,-0.0017,-0.0018,-0.0018,-0.0015,-0.0015,-0.0015,0,-0.0122,-0.0111,-0.0101,-0.0095,-0.009,-0.008,-0.0075,-0.0069,-0.0056,-0.0053,-0.0051,-0.0036,-0.0029,-0.0021,-0.0022,-0.0018,-0.0017,-0.0016,-0.0017,-0.0018,-0.0018,-0.0018,-0.0019,-0.0015,-0.0015,-0.0015,-0.0015,0,-0.0119,-0.0112,-0.011,-0.0097,-0.0092,-0.0086,-0.0076,-0.0072,-0.0066,-0.0059,-0.0052,-0.0043,-0.0034,-0.0032,-0.0027,-0.0024,-0.0023,-0.0019,-0.0015,-0.0019,-0.002,-0.002,-0.0016,-0.0016,-0.0015,-0.0015,0,0,-0.0128,-0.0111,-0.011,-0.0105,-0.0092,-0.0087,-0.0081,-0.0072,-0.0069,-0.0061,-0.0056,-0.0047,-0.0043,-0.0038,-0.0032,-0.0029,-0.0032,-0.0026,-0.0025,-0.0027,-0.0029,-0.0032,-0.0032,-0.0028,-0.0028,-0.0028,-0.003,0,-0.013,-0.0119,-0.011,-0.0103,-0.0096,-0.0087,-0.0083,-0.0075,-0.0069,-0.0063,-0.0056,-0.0049,-0.0045,-0.0042,-0.0039,-0.0032,-0.0032,-0.0032,-0.0024,-0.0024,-0.0026,-0.0032,-0.0035,-0.0037,-0.003,-0.003,-0.003,0,-0.0129,-0.0121,-0.0113,-0.0102,-0.0099,-0.0095,-0.0086,-0.008,-0.0072,-0.0067,-0.0061,-0.0055,-0.0049,-0.0046,-0.0039,-0.0039,-0.0036,-0.0032,-0.0032,-0.003,-0.0027,-0.0031,-0.0037,-0.0038,-0.003,-0.003,-0.003,0,-0.0137,-0.0124,-0.0118,-0.0113,-0.01,-0.0097,-0.0091,-0.0083,-0.0078,-0.0071,-0.0068,-0.006,-0.0056,-0.005,-0.0042,-0.004,-0.0036,-0.0032,-0.0032,-0.0032,-0.0031,-0.0031,-0.0037,-0.0029,-0.0029,-0.0029,-0.0029,0,-0.0139,-0.0134,-0.0121,-0.0117,-0.0112,-0.0102,-0.0098,-0.0091,-0.0084,-0.0079,-0.0071,-0.0067,-0.0056,-0.0051,-0.0045,-0.004,-0.0038,-0.0035,-0.0033,-0.0035,-0.0036,-0.0033,-0.0032,-0.0029,-0.0029,-0.0029,-0.0029,0,-0.0146,-0.0137,-0.0129,-0.0117,-0.0114,-0.0111,-0.0101,-0.0097,-0.009,-0.0084,-0.0083,-0.0072,-0.0066,-0.0057,-0.0048,-0.0044,-0.004,-0.0037,-0.0042,-0.0041,-0.0042,-0.0042,-0.0046,-0.0046,-0.0039,-0.0039,-0.0039,0,-0.0148,-0.0144,-0.0132,-0.0128,-0.0122,-0.0116,-0.0111,-0.0102,-0.0097,-0.0087,-0.0085,-0.0078,-0.0071,-0.0061,-0.0053,-0.0047,-0.0044,-0.0046,-0.0043,-0.0045,-0.0044,-0.0044,-0.0044,-0.0046,-0.0046,-0.0046,-0.0047,0,-0.0152,-0.0148,-0.0141,-0.0132,-0.0127,-0.012,-0.0113,-0.011,-0.01,-0.0095,-0.0088,-0.0083,-0.0074,-0.0067,-0.0059,-0.0054,-0.0049,-0.0048,-0.0047,-0.0049,-0.0053,-0.0051,-0.0044,-0.0047,-0.0047,-0.0047,-0.0047,-0.0047,-0.0156,-0.0153,-0.0143,-0.0136,-0.013,-0.0124,-0.0119,-0.0112,-0.0106,-0.0098,-0.0093,-0.0086,-0.0078,-0.0067,-0.0062,-0.0057,-0.0055,-0.0055,-0.0055,-0.0055,-0.0056,-0.0054,-0.0056,-0.0056,-0.0056,-0.0056,-0.0056,0,-0.016,-0.0154,-0.0147,-0.0137,-0.0132,-0.0127,-0.0119,-0.0115,-0.0109,-0.0102,-0.0096,-0.0089,-0.0082,-0.0074,-0.0067,-0.0064,-0.0062,-0.0063,-0.0063,-0.0062,-0.0058,-0.0059,-0.0065,-0.0065,-0.0065,-0.0065,-0.0065,-0.0065,-0.0161,-0.0155,-0.015,-0.0141,-0.0135,-0.0128,-0.0124,-0.0118,-0.0112,-0.0104,-0.0098,-0.0093,-0.0086,-0.0078,-0.0072,-0.007,-0.0068,-0.007,-0.0067,-0.0063,-0.0062,-0.0061,-0.0062,-0.0069,-0.0069,-0.0071,-0.0071,-0.0071]}]]